• In Hungary
  • List of Countries
  • For 7 days
  • Water Temperature
  • Satellite Maps
  • Weather Map
  • News
  • Weather Widgets
  • user-avatar
    Login

    Hourly Weather Stadnya

    Today, 17 February, Saturday

    Time Temperature Precipitation Wind Pressure Humidity
    00:00 -4°C° 0 mm 3 mps 748 mmHg 94%
    01:00 -4°C° 0 mm 3 mps 748 mmHg 94%
    02:00 -5°C° 0 mm 3 mps 748 mmHg 95%
    03:00 -5°C° 0 mm 3 mps 748 mmHg 95%
    04:00 -6°C° 0 mm 3 mps 748 mmHg 95%
    05:00 -6°C° 0 mm 3 mps 748 mmHg 95%
    06:00 -7°C° 0 mm 3 mps 748 mmHg 95%
    07:00 -6°C° 0 mm 2 mps 748 mmHg 94%
    08:00 -6°C° 0 mm 3 mps 748 mmHg 94%
    09:00 -5°C° 0 mm 3 mps 748 mmHg 94%
    10:00 -4°C° 0 mm 3 mps 748 mmHg 93%
    11:00 -1°C° 0 mm 3 mps 747 mmHg 92%
    12:00 -1°C° 0 mm 3 mps 747 mmHg 94%
    13:00 0°C° 0 mm 3 mps 747 mmHg 96%
    14:00 0°C° 0 mm 3 mps 746 mmHg 97%
    15:00 +1°C° 0 mm 2 mps 746 mmHg 95%
    16:00 -1°C° 0 mm 2 mps 746 mmHg 93%
    17:00 -1°C° 0 mm 2 mps 746 mmHg 91%
    18:00 -2°C° 0 mm 2 mps 746 mmHg 90%
    19:00 -1°C° 0 mm 1 mps 745 mmHg 89%
    20:00 -2°C° 0 mm 1 mps 745 mmHg 88%
    21:00 -2°C° 0 mm 1 mps 745 mmHg 88%
    22:00 -2°C° 0 mm 1 mps 745 mmHg 88%
    23:00 -2°C° 0 mm 1 mps 745 mmHg 87%

    Tomorrow, 18 February, Sunday

    Time Temperature Precipitation Wind Pressure Humidity
    00:00 -2°C° 0 mm 1 mps 745 mmHg 88%
    01:00 -2°C° 0 mm 1 mps 745 mmHg 88%
    02:00 -2°C° 0 mm 1 mps 745 mmHg 88%
    03:00 -2°C° 0 mm 1 mps 745 mmHg 88%
    04:00 -2°C° 0 mm 1 mps 745 mmHg 88%
    05:00 -2°C° 0 mm 1 mps 745 mmHg 88%
    06:00 -2°C° 0 mm 1 mps 745 mmHg 88%
    07:00 -2°C° 0 mm 1 mps 745 mmHg 89%
    08:00 -2°C° 0 mm 1 mps 745 mmHg 89%
    09:00 -1°C° 0 mm 1 mps 745 mmHg 89%
    10:00 -2°C° 0 mm 2 mps 745 mmHg 90%
    11:00 -1°C° 0 mm 2 mps 745 mmHg 90%
    12:00 -1°C° 0 mm 2 mps 746 mmHg 91%
    13:00 -1°C° 0 mm 3 mps 746 mmHg 93%
    14:00 -1°C° 0 mm 3 mps 746 mmHg 94%
    15:00 -1°C° 0.1 mm 3 mps 746 mmHg 92%
    16:00 -1°C° 0.1 mm 3 mps 746 mmHg 90%
    17:00 -2°C° 0.1 mm 3 mps 746 mmHg 89%
    18:00 -4°C° 0 mm 3 mps 747 mmHg 89%
    19:00 -5°C° 0 mm 3 mps 747 mmHg 90%
    20:00 -6°C° 0 mm 3 mps 748 mmHg 90%
    21:00 -6°C° 0 mm 3 mps 748 mmHg 90%
    22:00 -5°C° 0 mm 2 mps 748 mmHg 90%
    23:00 -5°C° 0 mm 2 mps 748 mmHg 89%

    Day after tomorrow, 19 February, Monday

    Time Temperature Precipitation Wind Pressure Humidity
    00:00 -5°C° 0 mm 2 mps 748 mmHg 89%
    01:00 -6°C° 0 mm 2 mps 748 mmHg 89%
    02:00 -6°C° 0 mm 2 mps 749 mmHg 89%
    03:00 -6°C° 0 mm 2 mps 749 mmHg 89%
    04:00 -4°C° 0 mm 1 mps 748 mmHg 88%
    05:00 -6°C° 0 mm 1 mps 748 mmHg 88%
    06:00 -6°C° 0 mm 1 mps 748 mmHg 88%
    07:00 -6°C° 0 mm 1 mps 749 mmHg 88%
    08:00 -6°C° 0 mm 1 mps 749 mmHg 88%
    09:00 -4°C° 0 mm 1 mps 749 mmHg 85%
    10:00 -3°C° 0 mm 1 mps 749 mmHg 82%
    11:00 -2°C° 0 mm 1 mps 749 mmHg 79%
    12:00 -2°C° 0 mm 1 mps 748 mmHg 77%
    13:00 -1°C° 0 mm 1 mps 748 mmHg 76%
    14:00 -1°C° 0 mm 1 mps 748 mmHg 74%
    15:00 -1°C° 0 mm 1 mps 748 mmHg 77%
    16:00 -2°C° 0 mm 1 mps 747 mmHg 80%
    17:00 -2°C° 0 mm 1 mps 747 mmHg 83%
    18:00 -3°C° 0 mm 1 mps 747 mmHg 84%
    19:00 -6°C° 0 mm 2 mps 747 mmHg 86%
    20:00 -6°C° 0 mm 2 mps 747 mmHg 87%
    21:00 -7°C° 0 mm 2 mps 747 mmHg 88%
    22:00 -7°C° 0 mm 2 mps 747 mmHg 89%
    23:00 -7°C° 0 mm 2 mps 747 mmHg 89%

    20 February, Tuesday

    Time Temperature Precipitation Wind Pressure Humidity
    00:00 -8°C° 0 mm 2 mps 747 mmHg 89%
    01:00 -9°C° 0 mm 3 mps 746 mmHg 90%
    02:00 -9°C° 0 mm 3 mps 746 mmHg 90%
    03:00 -9°C° 0 mm 3 mps 746 mmHg 90%
    04:00 -9°C° 0 mm 3 mps 746 mmHg 91%
    05:00 -9°C° 0 mm 3 mps 745 mmHg 91%
    06:00 -9°C° 0 mm 3 mps 745 mmHg 91%
    07:00 -9°C° 0 mm 3 mps 745 mmHg 91%
    08:00 -9°C° 0 mm 3 mps 745 mmHg 91%
    09:00 -8°C° 0 mm 3 mps 745 mmHg 89%
    10:00 -8°C° 0 mm 4 mps 745 mmHg 87%
    11:00 -5°C° 0 mm 4 mps 744 mmHg 84%
    12:00 -5°C° 0 mm 4 mps 744 mmHg 84%
    13:00 -4°C° 0 mm 4 mps 744 mmHg 83%
    14:00 -3°C° 0 mm 4 mps 743 mmHg 83%
    15:00 -4°C° 0 mm 4 mps 743 mmHg 84%
    16:00 -4°C° 0 mm 4 mps 743 mmHg 86%
    17:00 -5°C° 0 mm 4 mps 742 mmHg 87%
    18:00 -5°C° 0 mm 4 mps 742 mmHg 88%
    19:00 -7°C° 0 mm 4 mps 742 mmHg 88%
    20:00 -7°C° 0 mm 4 mps 742 mmHg 89%
    21:00 -8°C° 0 mm 4 mps 742 mmHg 89%
    22:00 -8°C° 0 mm 4 mps 742 mmHg 89%
    23:00 -8°C° 0 mm 4 mps 742 mmHg 89%

    21 February, Wednesday

    Time Temperature Precipitation Wind Pressure Humidity
    00:00 -8°C° 0 mm 4 mps 742 mmHg 89%
    01:00 -8°C° 0 mm 4 mps 742 mmHg 89%
    02:00 -8°C° 0 mm 4 mps 742 mmHg 89%
    03:00 -8°C° 0 mm 4 mps 741 mmHg 89%
    04:00 -7°C° 0 mm 4 mps 741 mmHg 89%
    05:00 -7°C° 0 mm 4 mps 741 mmHg 89%
    06:00 -7°C° 0.1 mm 4 mps 741 mmHg 90%
    07:00 -7°C° 0.1 mm 4 mps 741 mmHg 91%
    08:00 -5°C° 0.1 mm 4 mps 741 mmHg 91%
    09:00 -5°C° 0.2 mm 4 mps 741 mmHg 91%
    10:00 -4°C° 0.2 mm 4 mps 741 mmHg 90%
    11:00 -4°C° 0.2 mm 4 mps 741 mmHg 90%
    12:00 -3°C° 0.2 mm 4 mps 741 mmHg 90%
    13:00 -3°C° 0.2 mm 4 mps 740 mmHg 90%
    14:00 -3°C° 0.2 mm 4 mps 740 mmHg 90%
    15:00 -2°C° 0.2 mm 3 mps 740 mmHg 91%
    16:00 -2°C° 0.2 mm 3 mps 740 mmHg 92%
    17:00 -2°C° 0.2 mm 3 mps 740 mmHg 92%
    18:00 -2°C° 0.2 mm 3 mps 740 mmHg 93%
    19:00 -2°C° 0.2 mm 3 mps 741 mmHg 94%
    20:00 -4°C° 0.2 mm 3 mps 741 mmHg 95%
    21:00 -4°C° 0.1 mm 3 mps 741 mmHg 95%
    22:00 -4°C° 0.1 mm 3 mps 741 mmHg 95%
    23:00 -3°C° 0.1 mm 2 mps 741 mmHg 95%

    22 February, Thursday

    Time Temperature Precipitation Wind Pressure Humidity
    00:00 -3°C° 0.1 mm 2 mps 741 mmHg 95%
    01:00 -3°C° 0.1 mm 2 mps 741 mmHg 96%
    02:00 -3°C° 0.1 mm 2 mps 741 mmHg 96%
    03:00 -3°C° 0.1 mm 2 mps 741 mmHg 96%
    04:00 -3°C° 0.1 mm 2 mps 741 mmHg 96%
    05:00 -3°C° 0.1 mm 2 mps 740 mmHg 96%
    06:00 -4°C° 0.1 mm 3 mps 741 mmHg 96%
    07:00 -5°C° 0.1 mm 3 mps 741 mmHg 95%
    08:00 -5°C° 0.1 mm 3 mps 741 mmHg 95%
    09:00 -4°C° 0.1 mm 3 mps 741 mmHg 94%
    10:00 -4°C° 0.1 mm 3 mps 741 mmHg 92%
    11:00 -3°C° 0.1 mm 4 mps 740 mmHg 91%
    12:00 -3°C° 0.1 mm 4 mps 740 mmHg 91%
    13:00 -3°C° 0.1 mm 4 mps 740 mmHg 91%
    14:00 -3°C° 0.1 mm 4 mps 740 mmHg 91%
    15:00 -3°C° 0.1 mm 4 mps 740 mmHg 91%
    16:00 -3°C° 0.1 mm 4 mps 740 mmHg 91%
    17:00 -3°C° 0.1 mm 4 mps 739 mmHg 91%
    18:00 -4°C° 0.2 mm 4 mps 739 mmHg 92%
    19:00 -4°C° 0.2 mm 4 mps 739 mmHg 93%
    20:00 -4°C° 0.2 mm 4 mps 740 mmHg 94%
    21:00 -5°C° 0.3 mm 4 mps 739 mmHg 94%
    22:00 -5°C° 0.3 mm 4 mps 739 mmHg 94%
    23:00 -5°C° 0.3 mm 4 mps 739 mmHg 95%
    Show more